TimeEDT,TemperatureF,Dew PointF,Humidity,Sea Level PressureIn,VisibilityMPH,Wind Direction,Wind SpeedMPH,Gust SpeedMPH,PrecipitationIn,Events,Conditions,WindDirDegrees,DateUTC
12:53 AM,71.1,66.9,87,29.97,10.0,Calm,Calm,-,N/A,,Partly Cloudy,0,2013-08-02 04:53:00
1:53 AM,73.0,66.9,81,29.96,10.0,Calm,Calm,-,N/A,,Mostly Cloudy,0,2013-08-02 05:53:00
2:53 AM,70.0,66.9,90,29.95,10.0,Calm,Calm,-,N/A,,Clear,0,2013-08-02 06:53:00
3:53 AM,70.0,66.0,87,29.94,10.0,Calm,Calm,-,N/A,,Clear,0,2013-08-02 07:53:00
4:53 AM,70.0,66.0,87,29.94,10.0,North,4.6,-,N/A,,Clear,350,2013-08-02 08:53:00
5:53 AM,69.1,64.9,87,29.96,10.0,Calm,Calm,-,N/A,,Clear,0,2013-08-02 09:53:00
6:53 AM,69.1,64.9,87,29.98,10.0,Calm,Calm,-,N/A,,Clear,0,2013-08-02 10:53:00
7:53 AM,72.0,66.0,81,30.00,10.0,North,3.5,-,N/A,,Clear,360,2013-08-02 11:53:00
8:53 AM,75.0,64.9,71,30.01,10.0,Calm,Calm,-,N/A,,Clear,0,2013-08-02 12:53:00
9:53 AM,77.0,68.0,74,30.02,10.0,Calm,Calm,-,N/A,,Clear,0,2013-08-02 13:53:00
10:53 AM,78.1,68.0,71,30.04,10.0,Calm,Calm,-,N/A,,Clear,0,2013-08-02 14:53:00
11:53 AM,81.0,68.0,65,30.04,10.0,East,5.8,-,N/A,,Partly Cloudy,80,2013-08-02 15:53:00
12:53 PM,82.0,68.0,62,30.04,10.0,SSE,5.8,-,N/A,,Mostly Cloudy,160,2013-08-02 16:53:00
1:02 PM,82.4,68.0,62,30.08,10.0,Variable,5.8,-,N/A,,Mostly Cloudy,0,2013-08-02 17:02:00
1:13 PM,82.4,68.0,62,30.08,10.0,Calm,Calm,-,N/A,,Overcast,0,2013-08-02 17:13:00
1:25 PM,82.4,68.0,62,30.08,10.0,Variable,3.5,-,N/A,,Mostly Cloudy,0,2013-08-02 17:25:00
1:38 PM,82.4,68.0,62,30.08,10.0,Variable,3.5,-,N/A,,Mostly Cloudy,0,2013-08-02 17:38:00
1:45 PM,82.4,68.0,62,30.08,10.0,Calm,Calm,-,N/A,,Mostly Cloudy,0,2013-08-02 17:45:00
1:53 PM,82.9,68.0,60,30.03,10.0,Variable,4.6,-,N/A,,Overcast,0,2013-08-02 17:53:00
2:53 PM,84.9,66.0,53,30.02,10.0,Calm,Calm,-,N/A,,Partly Cloudy,0,2013-08-02 18:53:00
3:53 PM,84.9,64.9,51,30.01,10.0,SW,4.6,-,N/A,,Clear,230,2013-08-02 19:53:00
4:53 PM,84.9,59.0,41,30.00,10.0,Variable,4.6,-,N/A,,Clear,0,2013-08-02 20:53:00
5:53 PM,87.1,55.9,35,30.00,10.0,NW,3.5,-,N/A,,Clear,320,2013-08-02 21:53:00
6:53 PM,84.0,64.9,53,29.99,10.0,WSW,5.8,-,N/A,,Partly Cloudy,240,2013-08-02 22:53:00
7:53 PM,82.0,64.0,54,30.01,10.0,WNW,5.8,-,N/A,,Clear,300,2013-08-02 23:53:00
8:53 PM,77.0,66.0,69,30.02,10.0,West,3.5,-,N/A,,Clear,260,2013-08-03 00:53:00
9:53 PM,78.1,66.0,66,30.03,10.0,West,5.8,-,N/A,,Clear,280,2013-08-03 01:53:00
10:53 PM,75.0,66.9,76,30.04,10.0,Calm,Calm,-,N/A,,Clear,0,2013-08-03 02:53:00
11:53 PM,73.9,66.0,76,30.04,10.0,Calm,Calm,-,N/A,,Clear,0,2013-08-03 03:53:00